Regional Weather Roundup
Issued by NWS

Home | Current Version | Previous Version | Text Only | Print | Product List | Glossary On
Versions: 1 2 3 4 5 6 7 8 9 10 11 12 13 14 15 16 17 18 19 20 21 22 23 24 25 26 27 28 29 30 31 32 33 34 35 36 37 38 39 40 41 42 43 44 45 46 47 48 49 50
000
ASUS43 KLSX 282059
RWRMO

WEATHER SUMMARY FOR MISSOURI
NATIONAL WEATHER SERVICE SPRINGFIELD MO
400 PM CDT THU MAY 28 2015

NOTE: "FAIR" INDICATES FEW OR NO CLOUDS BELOW 12,000 FEET WITH NO
       SIGNIFICANT WEATHER AND/OR OBSTRUCTIONS TO VISIBILITY.
       CURRENT SKY AND/OR WEATHER CONDITIONS ARE NOT AVAILABLE FOR
       CHILLICOTHE AND FARMINGTON.

MOZ001>031-035>038-043-044-053-054-282200-
...NORTHERN AND WESTERN MISSOURI...

CITY           SKY/WX    TMP DP  RH WIND       PRES   REMARKS
KANSAS CTY INT CLOUDY    71  66  84 S9        30.04F
KANSAS C DTWN  CLOUDY    73  64  73 S7        30.02F
LEE`S SUMMIT   CLOUDY    71  65  81 S3        30.04F
ST JOSEPH      CLOUDY    73  65  75 S10       30.02F
CHILLICOTHE      N/A     76  65  68 SW8       30.05S

$$
MOZ066>068-077>081-088>096-101>105-282200-
...SOUTHWEST MISSOURI...

CITY           SKY/WX    TMP DP  RH WIND       PRES   REMARKS
SPRINGFIELD    LGT RAIN  71  66  84 NW9       30.05F
JOPLIN         CLOUDY    74  67  78 S7        30.03F

$$
MOZ032>034-039>042-045>050-055>058-069>072-282200-
...CENTRAL MISSOURI...

CITY           SKY/WX    TMP DP  RH WIND       PRES   REMARKS
COLUMBIA       CLOUDY    75  68  78 S5        30.06F
JEFFERSON CITY CLOUDY    77  66  68 NW8       30.04F
ROLLA          PTSUNNY   79  67  66 SE14      30.06F
SEDALIA        CLOUDY    70  63  78 W10G20    30.09R
OSAGE BEACH    CLOUDY    79  66  65 SE6       30.06S

$$
MOZ051-052-059>065-282200-
...EAST CENTRAL MISSOURI...

CITY           SKY/WX    TMP DP  RH WIND       PRES   REMARKS
ST LOUIS INTL  LGT RAIN  73  66  78 W7        30.09F
SPIRIT OF STL  CLOUDY   N/A N/A N/A SE3       30.06F
ST CHARLES     RAIN      71  64  78 SW6       30.08F

$$
MOZ072>076-082>087-097>100-106>115-282200-
...SOUTH CENTRAL AND SOUTHEAST MISSOURI...

CITY           SKY/WX    TMP DP  RH WIND       PRES   REMARKS
CAPE GIRARDEAU MOSUNNY   81  69  67 SW10      30.10F
FARMINGTON     MOSUNNY   79  66  65 S10       30.14F
POPLAR BLUFF   MOSUNNY   79  66  64 SE7       30.09F
WEST PLAINS    CLOUDY    77  66  68 SE9       30.10F

$$



USA.gov is the U.S. government's official web portal to all federal, state and local government web resources and services.